Location: Unspecified
(40.7945°N, 0.0000°E)
Time: 03:39:14
(UTC+00:00)

Altair - Pass Details

Date: 27 January 2021
Orbit: 1501 x 1682 km, 47.2° (Epoch: 01 March)

Event Time Altitude Azimuth Distance (km) Brightness Sun altitude
Rises 01:40:19 0° 181° (S) 4,778 - -60.8°
Reaches altitude 10° 01:44:33 10° 165° (SSE) 3,829 - -60.2°
Maximum altitude 01:50:53 19° 124° (SE) 3,186 - -59.3°
Exits shadow 01:55:13 15° 94° (E) 3,549 9.6 -58.7°
Drops below altitude 10° 01:57:18 10° 84° (E) 3,919 9.9 -58.4°
Sets 02:01:40 0° 68° (ENE) 4,927 10.6 -57.7°
